User: anonymous
Location: Caltech
(34.1382°N, 118.1253°W)
Time: 20:06:15
(UTC-07:00)
Language:

SL-16 R/B - Orbit

View from above orbital plane
View from above orbital plane
View from above satellite
View from above satellite

Ground track
Ground track

The orbit data is extracted from the following two-line orbital elements,

1 28353U 04021B   14206.27182660 -.00000245  00000-0 -10393-3 0  8039
2 28353 071.0020 136.9251 0005797 339.2843 174.3655 14.14085525522601
Epoch (UTC): 25 July 2014 06:31:25
Eccentricity: 0.0005797
inclination: 71.0020°
perigee height: 841 km
apogee height: 849 km
right ascension of ascending node: 136.9251°
argument of perigee: 339.2843°
revolutions per day: 14.14085525
mean anomaly at epoch: 174.3655°
orbit number at epoch: 52260

The dashed part of the orbit path shows where the satellite is in the earth's shadow,  

DLR